Simultaneous Nadir Overpasses (SNOs) Predictions

Prediction of SNOs between AQUA and GOES-15 Satellite Orbit:

Table of predicted SNOs for the next 14.0 days since TLE Epoch: 4/14/2012
Index Date Time (AQUA) AQUA Lat,Lon GOES-15 Lat,Lon Distance(km) Time Diff (sec)
1 04/15/2012 10:26:23 -0.30,-132.69 0.06,-134.51 207.26 80
2 04/15/2012 22:47:48 -0.77,-137.88 -0.05,-134.60 374.03 80
3 04/17/2012 22:35:38 -0.08,-134.94 -0.05,-134.68 29.04 80
4 04/19/2012 22:23:27 0.56,-131.98 -0.05,-134.75 315.91 80
5 04/20/2012 10:44:42 0.57,-137.13 0.04,-134.71 275.28 80
6 04/22/2012 10:32:31 -0.09,-134.17 0.04,-134.78 68.69 80
7 04/24/2012 10:20:20 -0.76,-131.22 0.04,-134.84 412.08 80
8 04/24/2012 22:41:44 -0.35,-136.41 -0.03,-134.91 170.12 80
9 04/26/2012 22:29:32 0.28,-133.44 -0.03,-134.96 172.67 80
10 04/27/2012 10:50:48 0.79,-138.60 0.02,-134.92 418.66 80




NCC Satellite Simultaneous Nadir Overpasses (SNOs) Prediction Service
